Satellite: GOLIAT Catalog number: 38085 Epoch time: 14072.84620850 Element set: 881 Inclination: 069.4589 deg RA of node: 244.2673 deg Eccentricity: 0.0473368 Arg of perigee: 134.4976 deg Mean anomaly: 340.6900 deg Mean motion: 14.81656505 rev/day Decay rate: 1.56013e-03 rev/day^2 Epoch rev: 10904 Checksum: 321
Satellite: HORYU-2 Catalog number: 38340 Epoch time: 14071.85764234 Element set: 790 Inclination: 098.2503 deg RA of node: 027.5176 deg Eccentricity: 0.0013298 Arg of perigee: 117.8917 deg Mean anomaly: 242.3629 deg Mean motion: 14.72021757 rev/day Decay rate: 3.362e-05 rev/day^2 Epoch rev: 9762 Checksum: 311
Satellite: RS-40 Catalog number: 38735 Epoch time: 14072.06566456 Element set: 513 Inclination: 082.4809 deg RA of node: 347.4787 deg Eccentricity: 0.0017775 Arg of perigee: 102.5149 deg Mean anomaly: 257.7921 deg Mean motion: 12.42557375 rev/day Decay rate: 2.4e-07 rev/day^2 Epoch rev: 7364 Checksum: 322
Satellite: PROITERES Catalog number: 38756 Epoch time: 14072.80414937 Element set: 656 Inclination: 098.2287 deg RA of node: 159.5408 deg Eccentricity: 0.0012080 Arg of perigee: 333.9598 deg Mean anomaly: 026.1001 deg Mean motion: 14.74737765 rev/day Decay rate: 1.591e-05 rev/day^2 Epoch rev: 8112 Checksum: 312
Satellite: BEESAT-3 Catalog number: 39134 Epoch time: 14072.20880555 Element set: 524 Inclination: 064.8777 deg RA of node: 082.0280 deg Eccentricity: 0.0019234 Arg of perigee: 325.1553 deg Mean anomaly: 034.8306 deg Mean motion: 15.03615841 rev/day Decay rate: 1.0707e-04 rev/day^2 Epoch rev: 4922 Checksum: 281
Satellite: BEESAT-2 Catalog number: 39136 Epoch time: 14071.50712340 Element set: 514 Inclination: 064.8744 deg RA of node: 084.4619 deg Eccentricity: 0.0019416 Arg of perigee: 325.3583 deg Mean anomaly: 034.6272 deg Mean motion: 15.03201375 rev/day Decay rate: 9.393e-05 rev/day^2 Epoch rev: 4911 Checksum: 283
Satellite: LO-75 Catalog number: 39382 Epoch time: 14072.06021332 Element set: 148 Inclination: 040.4988 deg RA of node: 308.7874 deg Eccentricity: 0.0010766 Arg of perigee: 280.3924 deg Mean anomaly: 079.5634 deg Mean motion: 15.30902098 rev/day Decay rate: 7.0422e-04 rev/day^2 Epoch rev: 1725 Checksum: 308
Satellite: ZACUBE-1 Catalog number: 39417 Epoch time: 14072.64173778 Element set: 243 Inclination: 097.7831 deg RA of node: 146.5318 deg Eccentricity: 0.0062828 Arg of perigee: 192.2116 deg Mean anomaly: 167.7586 deg Mean motion: 14.77634349 rev/day Decay rate: 3.371e-05 rev/day^2 Epoch rev: 1658 Checksum: 333
Satellite: TRITON-1 Catalog number: 39427 Epoch time: 14072.44560195 Element set: 95 Inclination: 097.7709 deg RA of node: 144.0971 deg Eccentricity: 0.0118651 Arg of perigee: 194.5194 deg Mean anomaly: 165.2587 deg Mean motion: 14.64985930 rev/day Decay rate: 3.102e-05 rev/day^2 Epoch rev: 1637 Checksum: 323
Satellite: DELFIN3XT Catalog number: 39428 Epoch time: 14072.43095249 Element set: 99 Inclination: 097.7694 deg RA of node: 143.6501 deg Eccentricity: 0.0130002 Arg of perigee: 195.3489 deg Mean anomaly: 164.3724 deg Mean motion: 14.62642897 rev/day Decay rate: 4.877e-05 rev/day^2 Epoch rev: 1633 Checksum: 327
Satellite: GOMX-1 Catalog number: 39430 Epoch time: 14072.75946796 Element set: 302 Inclination: 097.7668 deg RA of node: 142.9013 deg Eccentricity: 0.0157268 Arg of perigee: 197.0138 deg Mean anomaly: 162.5730 deg Mean motion: 14.56430376 rev/day Decay rate: 2.850e-05 rev/day^2 Epoch rev: 1632 Checksum: 312
Satellite: $50SAT Catalog number: 39436 Epoch time: 14072.19559658 Element set: 127 Inclination: 097.7851 deg RA of node: 147.4496 deg Eccentricity: 0.0029439 Arg of perigee: 204.4008 deg Mean anomaly: 155.5577 deg Mean motion: 14.86888490 rev/day Decay rate: 2.2292e-04 rev/day^2 Epoch rev: 1659 Checksum: 355
Satellite: LO-74 Catalog number: 39440 Epoch time: 14072.41149626 Element set: 93 Inclination: 097.7781 deg RA of node: 145.4189 deg Eccentricity: 0.0084509 Arg of perigee: 192.6545 deg Mean anomaly: 167.2539 deg Mean motion: 14.72606931 rev/day Decay rate: 3.299e-05 rev/day^2 Epoch rev: 1648 Checksum: 342
Satellite: PUCPSAT-1 Catalog number: 39442 Epoch time: 14072.13414687 Element set: 90 Inclination: 097.7874 deg RA of node: 147.3900 deg Eccentricity: 0.0034865 Arg of perigee: 199.5037 deg Mean anomaly: 160.4803 deg Mean motion: 14.85385339 rev/day Decay rate: 5.116e-05 rev/day^2 Epoch rev: 1536 Checksum: 314
Satellite: LITSAT-1 Catalog number: 39568 Epoch time: 14072.76506024 Element set: 10 Inclination: 051.6466 deg RA of node: 212.3235 deg Eccentricity: 0.0005965 Arg of perigee: 300.9023 deg Mean anomaly: 200.3267 deg Mean motion: 15.55360598 rev/day Decay rate: 1.55253e-03 rev/day^2 Epoch rev: 207 Checksum: 269
Satellite: LITUANSAT Catalog number: 39569 Epoch time: 14072.83185112 Element set: 48 Inclination: 051.6479 deg RA of node: 212.0550 deg Eccentricity: 0.0005330 Arg of perigee: 293.1767 deg Mean anomaly: 189.4558 deg Mean motion: 15.54019405 rev/day Decay rate: 9.9721e-04 rev/day^2 Epoch rev: 208 Checksum: 299
Satellite: SHINAISAT Catalog number: 39572 Epoch time: 14072.73881896 Element set: 27 Inclination: 065.0125 deg RA of node: 012.1302 deg Eccentricity: 0.0011685 Arg of perigee: 282.2781 deg Mean anomaly: 077.7575 deg Mean motion: 15.59940006 rev/day Decay rate: 5.1475e-04 rev/day^2 Epoch rev: 217 Checksum: 294
Satellite: OPUSAT Catalog number: 39575 Epoch time: 14072.98643444 Element set: 31 Inclination: 065.0161 deg RA of node: 011.1050 deg Eccentricity: 0.0003989 Arg of perigee: 317.4251 deg Mean anomaly: 118.6770 deg Mean motion: 15.63091717 rev/day Decay rate: 1.10847e-03 rev/day^2 Epoch rev: 221 Checksum: 270
Satellite: TEIKYOSAT Catalog number: 39576 Epoch time: 14072.99731425 Element set: 26 Inclination: 065.0162 deg RA of node: 011.1707 deg Eccentricity: 0.0006169 Arg of perigee: 296.7655 deg Mean anomaly: 137.4669 deg Mean motion: 15.61332240 rev/day Decay rate: 6.8300e-04 rev/day^2 Epoch rev: 221 Checksum: 283
Satellite: IFT-1 Catalog number: 39577 Epoch time: 14072.59174076 Element set: 27 Inclination: 065.0123 deg RA of node: 012.4827 deg Eccentricity: 0.0005131 Arg of perigee: 320.5079 deg Mean anomaly: 039.6214 deg Mean motion: 15.62456726 rev/day Decay rate: 7.5486e-04 rev/day^2 Epoch rev: 215 Checksum: 286
Satellite: INVADER Catalog number: 39578 Epoch time: 14072.83908163 Element set: 23 Inclination: 065.0084 deg RA of node: 011.5675 deg Eccentricity: 0.0004252 Arg of perigee: 297.4910 deg Mean anomaly: 062.5922 deg Mean motion: 15.64487193 rev/day Decay rate: 1.69401e-03 rev/day^2 Epoch rev: 219 Checksum: 295
Satellite: STARS-II Catalog number: 39579 Epoch time: 14072.78662513 Element set: 21 Inclination: 065.0123 deg RA of node: 011.8336 deg Eccentricity: 0.0007843 Arg of perigee: 273.7690 deg Mean anomaly: 086.2575 deg Mean motion: 15.63838067 rev/day Decay rate: 2.35695e-03 rev/day^2 Epoch rev: 218 Checksum: 311
/EX
participants (1)
-
Ray Hoad